Weather History for Fryeburg, ME

Change the Weather History Date:

Monday, January 14, 2013

  Actual Average Record
Temperature  
Mean Temperature 44 °F -  
Max Temperature 57 °F 24 °F 57 °F (2005)
Min Temperature 30 °F 4 °F -17 °F (2004)
Degree Days  
Heating Degree Days 22    
Moisture  
Dew Point 34 °F    
Average Humidity 87    
Maximum Humidity 100    
Minimum Humidity 37    
Precipitation  
Precipitation 0.00 in - - ()
Sea Level Pressure  
Sea Level Pressure 29.93 in    
Wind  
Wind Speed 2 mph (West)    
Max Wind Speed 15 mph    
Max Gust Speed 25 mph    
Visibility 4 miles    
Events Fog , Rain    
Averages and records for this station are not official NWS values.
T = Trace of Precipitation, MM = Missing Value Source: NWS Daily Summary

Daily Weather History Graph

Daily Weather History Graph

Search for Another Location

Airport:

Trip Planner

Search our weather history database for the weather conditions in past years. The results will help you decide how hot, cold, wet, or windy it might be!

Date:

Astronomy

Jan. 14, 2013 Rise Set
Actual Time 7:15 AM EST 4:30 PM EST
Civil Twilight 6:43 AM EST 5:02 PM EST
Nautical Twilight 6:07 AM EST 5:38 PM EST
Astronomical Twilight 5:33 AM EST 6:13 PM EST
Moon 8:39 AM EST (1/14) 8:22 PM EST (1/14)
Length of Visible Light 10h 19m
Length of Day
9h 15m
Waxing Crescent, 11% of the Moon is Illuminated
Jan 14
Waxing Crescent
Jan 18
First Quarter
Jan 26
Full
Feb 3
Last Quarter
Feb 10
New

Hourly Weather History & Observations

Time (EST) Temp. Windchill Dew Point Humidity Pressure Visibility Wind Dir Wind Speed Gust Speed Precip Events Conditions
12:45 AM 35.6 °F - 35.6 °F 100% 29.93 in 0.2 mi Calm Calm - N/A Fog Fog
12:54 AM 35.1 °F - 35.1 °F 100% 29.95 in 0.2 mi Calm Calm - 0.00 in Fog , Rain Light Rain
1:54 AM 35.1 °F - 35.1 °F 100% 29.95 in 0.2 mi Calm Calm - 0.00 in Fog Fog
2:54 AM 35.1 °F 32.2 °F 34.0 °F 96% 29.93 in 0.2 mi WNW 3.5 mph - N/A Fog Fog
3:54 AM 34.0 °F - 34.0 °F 100% 29.91 in 0.5 mi Calm Calm - N/A Fog Fog
4:09 AM 33.8 °F - 33.8 °F 100% 29.88 in 1.0 mi Calm Calm - N/A   Overcast
4:18 AM 33.8 °F - 33.8 °F 100% 29.88 in 0.8 mi Calm Calm - N/A   Overcast
4:28 AM 35.6 °F - 35.6 °F 100% 29.87 in 0.8 mi Calm Calm - 0.00 in Rain Light Rain
4:59 AM 35.6 °F 31.7 °F 35.6 °F 100% 29.85 in 1.5 mi Variable 4.6 mph - 0.00 in Rain Light Rain
5:13 AM 35.6 °F - 35.6 °F 100% 29.85 in 1.0 mi Calm Calm - 0.00 in   Overcast
5:20 AM 35.6 °F - 35.6 °F 100% 29.85 in 1.5 mi Calm Calm - 0.00 in   Overcast
5:27 AM 37.4 °F - 37.4 °F 100% 29.85 in 3.0 mi Calm Calm - 0.00 in   Overcast
5:33 AM 35.6 °F 32.8 °F 35.6 °F 100% 29.85 in 1.8 mi Variable 3.5 mph - 0.00 in   Mostly Cloudy
5:42 AM 35.6 °F - 35.6 °F 100% 29.83 in 1.2 mi Calm Calm - 0.00 in   Mostly Cloudy
5:54 AM 36.0 °F 33.3 °F 36.0 °F 100% 29.86 in 2.0 mi South 3.5 mph - 0.00 in   Mostly Cloudy
5:57 AM 37.4 °F - 37.4 °F 100% 29.85 in 3.0 mi Calm Calm - N/A   Mostly Cloudy
6:05 AM 35.6 °F 31.7 °F 35.6 °F 100% 29.84 in 1.8 mi NE 4.6 mph - N/A   Overcast
6:11 AM 35.6 °F - 35.6 °F 100% 29.83 in 0.8 mi Calm Calm - 0.00 in Rain Light Rain
6:20 AM 35.6 °F 32.8 °F 35.6 °F 100% 29.86 in 1.5 mi NNW 3.5 mph - 0.00 in Rain Light Rain
6:24 AM 35.6 °F 31.7 °F 35.6 °F 100% 29.86 in 3.0 mi NNW 4.6 mph - 0.00 in   Overcast
6:32 AM 37.4 °F - 37.4 °F 100% 29.86 in 2.5 mi Calm Calm - 0.00 in Rain Light Rain
6:36 AM 37.4 °F 34.9 °F 35.6 °F 93% 29.86 in 1.2 mi NNW 3.5 mph - 0.00 in Rain Light Rain
6:45 AM 37.4 °F - 37.4 °F 100% 29.85 in 0.8 mi Calm Calm - 0.00 in   Overcast
6:54 AM 36.0 °F - 36.0 °F 100% 29.87 in 0.8 mi Calm Calm - 0.00 in   Overcast
7:04 AM 35.6 °F 32.8 °F 35.6 °F 100% 29.86 in 0.8 mi SSW 3.5 mph - N/A   Overcast
7:11 AM 37.4 °F - 35.6 °F 93% 29.85 in 1.5 mi Calm Calm - N/A   Mostly Cloudy
7:19 AM 35.6 °F 32.8 °F 35.6 °F 100% 29.85 in 2.0 mi SW 3.5 mph - N/A   Scattered Clouds
7:31 AM 37.4 °F 34.9 °F 37.4 °F 100% 29.85 in 4.0 mi SW 3.5 mph - N/A   Partly Cloudy
7:36 AM 37.4 °F 33.8 °F 35.6 °F 93% 29.85 in 1.0 mi East 4.6 mph - N/A   Mist
7:41 AM 35.6 °F 31.7 °F 35.6 °F 100% 29.85 in 0.2 mi East 4.6 mph - N/A Fog Fog
7:54 AM 36.0 °F 33.3 °F 36.0 °F 100% 29.87 in 0.5 mi South 3.5 mph - N/A Fog Fog
8:03 AM 35.6 °F 32.8 °F 35.6 °F 100% 29.85 in 1.2 mi WSW 3.5 mph - N/A   Scattered Clouds
8:05 AM 37.4 °F 33.8 °F 37.4 °F 100% 29.85 in 2.0 mi Variable 4.6 mph - N/A   Scattered Clouds
8:13 AM 42.8 °F 37.5 °F 41.0 °F 93% 29.86 in 9.0 mi WSW 9.2 mph - N/A   Partly Cloudy
8:54 AM 46.9 °F - 45.0 °F 93% 29.88 in 10.0 mi Variable 3.5 mph - N/A   Clear
9:54 AM 41.0 °F - 39.9 °F 96% 29.91 in 10.0 mi Calm Calm - N/A   Clear
10:54 AM 48.0 °F - 44.1 °F 86% 29.89 in 10.0 mi Calm Calm - 0.00 in   Clear
11:54 AM 57.0 °F - 45.0 °F 64% 29.89 in 10.0 mi Variable 3.5 mph - N/A   Clear
12:54 PM 55.9 °F - 37.0 °F 49% 29.93 in 10.0 mi WNW 8.1 mph 23.0 mph N/A   Partly Cloudy
1:54 PM 53.1 °F - 33.1 °F 47% 29.99 in 10.0 mi NW 11.5 mph 19.6 mph N/A   Clear
2:54 PM 50.0 °F - 26.1 °F 39% 30.03 in 10.0 mi WNW 15.0 mph 25.3 mph N/A   Clear
3:54 PM 48.0 °F - 23.0 °F 37% 30.07 in 10.0 mi WNW 12.7 mph 24.2 mph N/A   Clear
4:54 PM 44.1 °F 38.6 °F 23.0 °F 43% 30.11 in 10.0 mi West 10.4 mph 18.4 mph N/A   Clear
5:54 PM 41.0 °F 38.0 °F 23.0 °F 49% 30.12 in 10.0 mi WNW 4.6 mph - N/A   Clear
6:54 PM 39.0 °F 35.7 °F 23.0 °F 53% 30.14 in 10.0 mi Variable 4.6 mph - N/A   Clear
7:54 PM 37.9 °F 32.1 °F 21.9 °F 53% 30.18 in 10.0 mi West 8.1 mph - N/A   Clear
8:54 PM 37.0 °F - 21.9 °F 54% 30.20 in 10.0 mi Calm Calm - N/A   Clear
9:54 PM 30.9 °F - 23.0 °F 72% 30.19 in 10.0 mi Calm Calm - 0.00 in   Clear
10:54 PM 30.0 °F - 23.0 °F 75% 30.20 in 10.0 mi Calm Calm - N/A   Clear
11:54 PM 30.0 °F - 25.0 °F 82% 30.22 in 10.0 mi Calm Calm - N/A   Clear